User: anonymous   Login
Location: Chiroubles
(46.1812°N, 4.6660°E)
Time: 09:31:44
(UTC+00:00)
Language:

Cosmos 1833 - Orbit

View from above orbital plane
View from above orbital plane
View from above satellite
View from above satellite

Ground track
Ground track

The orbit data is extracted from the following two-line orbital elements,

1 17589U 87027A   20293.33355678 +.00000314 +00000-0 +19407-3 0  9992
2 17589 070.9148 140.7088 0018913 274.4205 085.4755 14.12888576732641
Epoch (UTC): 19 October 2020 08:00:19
Eccentricity: 0.0018913
inclination: 70.9148°
perigee height: 836 km
apogee height: 863 km
right ascension of ascending node: 140.7088°
argument of perigee: 274.4205°
revolutions per day: 14.12888576
mean anomaly at epoch: 85.4755°
orbit number at epoch: 73264

The dashed part of the orbit path shows where the satellite is in the earth's shadow,  

DLR